Wind_Speed
11 10 10 11 11 11 12 11 10 10 10 10 9 9 10 13 14 15 17 19 21 24 30 35 39 43 47 50 53 54 54 55 56 57 58 57 56 54 53 52 51 49 47 46
8 7 8 9 9 9 9 7 6 6 7 7 6 8 9 9 12 12 14 17 18 21 25 29 35 40 43 45 47 50 51 52 54 53 55 55 55 54 53 51 49 48 49 47
6 5 6 6 6 5 5 5 4 3 3 4 5 4 4 5 7 8 10 13 14 16 21 25 30 34 36 39 41 43 47 49 50 50 52 54 54 54 52 50 49 48 48 48
6 5 4 3 3 2 2 2 1 0 1 2 3 3 3 2 2 5 7 10 12 15 18 21 26 28 30 33 36 37 39 43 45 48 49 50 51 50 50 49 49 48 49 48
5 4 3 2 1 0 1 1 2 1 1 1 2 3 3 3 1 2 5 8 11 14 16 19 21 22 24 28 32 33 35 40 41 44 46 47 47 47 48 49 49 49 48 48
6 5 3 3 2 2 2 2 1 2 2 2 2 3 3 3 3 3 4 6 9 11 14 15 16 18 19 22 27 29 30 35 37 40 43 45 44 44 45 45 46 47 47 47
6 5 4 3 3 3 3 2 2 3 3 4 4 4 4 5 6 5 5 6 8 9 9 12 14 17 18 19 22 24 24 28 33 36 37 40 41 40 41 41 43 45 45 45
6 5 4 4 3 4 4 3 2 3 3 5 6 6 6 5 6 5 6 6 6 7 9 9 10 13 14 17 19 20 20 22 26 31 33 36 38 37 37 38 39 40 41 43
6 5 5 4 4 4 4 3 2 3 4 5 6 6 7 7 6 5 6 7 7 7 7 8 8 11 12 14 16 18 19 20 22 25 29 33 34 35 34 35 36 38 40 41
5 5 6 5 5 5 4 3 4 4 5 5 6 6 7 7 7 6 5 5 5 6 8 9 7 8 8 11 13 16 19 19 19 21 24 28 29 29 30 32 34 36 37 38
6 6 6 5 5 5 5 5 5 5 5 5 6 7 6 6 7 7 7 5 5 6 7 6 5 6 7 9 10 12 15 15 16 17 20 22 24 25 26 28 29 31 33 34
7 7 7 6 6 5 5 6 6 5 5 5 5 7 7 7 7 8 7 6 6 7 6 5 5 5 6 8 9 9 10 12 14 15 18 20 22 24 24 26 27 28 31 33
9 8 8 7 6 6 5 6 6 6 6 6 6 6 6 7 8 8 7 6 6 6 6 5 5 4 5 6 7 7 8 9 11 13 15 17 20 22 24 26 27 28 31 33
9 9 8 7 7 7 7 7 6 5 6 6 6 6 6 7 7 7 7 7 6 6 5 5 4 4 5 5 6 6 6 7 9 12 14 16 18 22 25 27 28 29 31 33
9 8 8 8 8 8 8 7 6 5 5 5 5 5 6 6 6 6 6 6 6 4 4 4 3 3 3 4 4 6 7 6 8 11 14 17 20 22 25 27 28 30 33 34
8 8 8 8 7 7 7 7 6 5 4 5 5 5 5 5 5 5 5 5 4 3 2 2 2 1 1 3 5 7 10 11 12 14 17 20 22 24 26 27 29 31 33 34
7 7 7 7 7 7 6 6 5 5 4 4 4 4 4 4 3 2 3 3 4 3 1 1 2 3 5 7 9 12 13 14 16 18 19 22 25 27 29 30 31 32 33 34
7 7 7 6 6 5 5 5 4 4 3 3 3 3 2 3 3 2 2 3 4 4 3 4 5 6 8 10 13 15 17 18 20 22 23 24 26 28 30 32 33 33 34 34
6 6 5 5 5 5 5 4 4 3 3 2 1 1 1 1 3 3 4 5 6 7 6 7 9 11 12 14 16 18 19 21 23 24 25 26 28 30 32 33 34 35 35 35
6 6 5 4 4 3 3 2 1 1 1 2 1 1 2 3 4 5 5 7 8 10 10 11 13 15 16 18 20 22 23 24 25 27 29 30 32 33 34 35 36 37 38 38
7 6 6 5 4 3 2 1 1 1 1 1 2 3 4 5 6 6 8 10 11 13 14 15 16 17 19 20 22 24 25 26 28 30 32 34 35 35 35 36 37 39 39 40
8 8 7 7 6 5 4 3 3 4 4 4 4 5 6 6 8 9 10 12 14 15 16 18 19 20 21 22 23 25 27 28 30 32 33 34 35 36 37 37 38 39 40 41
9 9 9 8 8 7 7 7 6 7 7 7 8 8 9 10 10 12 13 15 16 18 19 20 21 22 24 25 27 28 29 31 33 34 34 35 35 36 37 39 40 40 41 41
11 11 11 11 10 10 9 9 9 10 10 10 11 11 12 13 14 15 16 17 18 20 21 22 24 25 27 28 29 31 32 34 35 35 35 35 36 37 38 39 40 40 40 41
14 14 14 14 14 13 13 13 12 13 13 13 13 14 14 15 16 17 18 19 20 22 23 25 26 27 29 30 31 33 34 35 35 36 36 36 37 38 38 38 39 39 39 40
17 17 17 17 17 17 16 16 16 16 15 15 16 16 17 17 18 19 20 21 23 24 26 27 28 29 30 32 33 34 35 35 35 36 36 38 39 39 39 38 38 38 38 38
Wind_Direction
262 267 271 273 273 277 279 282 282 274 271 278 284 283 277 266 264 258 247 240 235 228 224 219 220 219 217 216 217 218 218 219 219 219 220 223 224 224 226 229 231 233 235 238
245 262 271 272 276 274 278 284 280 275 274 275 284 292 291 273 264 253 239 235 232 224 218 216 215 213 214 216 217 220 220 219 220 220 220 221 223 224 227 230 232 234 236 238
233 252 266 266 270 265 279 291 282 263 268 280 284 304 310 278 255 241 230 229 221 213 210 213 211 210 212 212 215 218 219 218 220 221 220 220 221 224 228 229 230 233 236 238
225 238 242 247 256 270 299 303 352 22 272 287 291 309 340 339 252 219 211 211 207 206 202 205 206 208 210 211 213 218 219 217 220 220 220 221 221 224 226 228 230 233 235 236
206 203 195 191 185 111 84 86 76 60 17 336 326 351 14 29 5 163 178 190 193 192 191 193 196 206 215 215 216 218 220 219 220 219 219 221 221 224 226 227 230 231 234 234
183 174 157 147 120 108 121 108 104 87 85 75 60 34 55 65 91 126 140 157 174 182 184 185 196 201 208 209 214 214 213 218 219 219 218 220 220 222 224 225 228 231 234 236
157 150 139 133 126 128 128 109 120 116 110 86 86 63 75 76 86 96 120 136 153 174 177 183 189 196 203 204 207 208 213 218 219 218 218 219 217 221 224 226 230 233 235 237
151 150 145 139 126 126 125 117 115 103 100 105 101 83 83 81 68 71 89 117 145 159 165 170 188 197 201 206 209 211 216 218 220 219 217 220 220 224 226 227 231 233 235 237
149 149 143 139 132 130 132 117 110 106 101 103 101 91 87 89 87 88 95 110 128 144 159 166 181 194 200 207 211 211 211 214 218 219 221 222 221 226 230 231 234 236 238 240
142 137 139 136 128 120 119 115 111 116 107 95 98 93 92 91 90 94 109 121 130 134 148 161 176 185 192 197 205 209 210 214 216 222 225 224 223 228 235 238 238 239 242 245
135 135 138 137 131 118 111 105 102 106 110 105 100 88 92 97 94 91 96 100 111 135 142 154 175 185 186 190 198 208 212 214 217 225 227 224 225 232 240 243 244 246 249 251
130 130 128 130 130 122 112 105 104 109 113 109 102 94 90 91 95 89 83 92 110 122 136 149 163 173 180 184 191 202 210 215 219 226 227 231 235 241 252 257 257 258 258 257
127 125 125 124 127 122 119 114 113 106 103 109 108 96 97 91 87 78 75 84 95 107 114 122 144 161 166 175 189 197 210 217 221 230 238 243 244 249 257 260 261 264 263 260
128 123 119 117 115 114 118 119 117 109 101 101 99 90 93 92 85 80 74 77 85 95 94 95 115 152 170 183 193 201 208 225 237 246 250 250 252 257 262 263 265 265 263 261
131 124 119 118 114 112 120 120 119 117 110 104 100 93 93 99 91 81 75 73 77 90 80 84 100 117 156 190 207 221 230 238 249 257 258 256 263 268 267 266 267 268 264 262
135 129 124 118 117 118 120 123 123 119 114 110 106 102 100 109 102 84 71 67 65 80 86 90 117 138 220 246 247 251 252 254 262 267 269 268 270 273 272 272 273 272 267 264
142 138 133 125 121 121 119 117 120 119 112 106 98 86 84 90 88 72 55 45 36 35 8 324 308 272 271 269 270 269 267 267 271 273 274 274 274 275 275 277 276 273 270 268
146 144 139 132 126 125 115 108 107 104 107 111 103 86 67 60 44 39 21 1 355 343 319 307 300 293 286 278 276 277 277 277 278 279 279 279 278 278 278 278 277 275 273 271
160 152 145 138 133 127 123 112 104 99 90 89 84 63 28 355 357 356 348 344 339 332 315 302 297 295 292 288 283 282 282 282 282 283 284 282 281 280 280 280 277 275 273 272
178 176 167 159 155 148 140 126 101 77 78 49 18 354 343 328 330 333 335 333 331 328 319 310 303 300 297 293 289 288 287 286 286 287 286 285 283 283 281 280 278 277 276 274
194 198 200 199 198 193 190 218 288 307 319 323 325 326 329 329 328 327 326 328 325 321 318 312 307 304 302 299 297 294 292 291 290 290 290 289 287 285 283 282 280 278 278 278
211 215 218 222 230 238 243 259 274 287 296 297 299 304 311 318 320 319 319 320 319 318 317 315 311 307 305 304 303 302 300 298 296 295 294 292 289 287 285 282 280 279 279 278
228 230 234 236 241 247 253 262 269 276 285 291 294 297 301 307 311 313 312 312 313 314 316 317 315 311 307 306 305 304 303 301 299 297 297 296 295 292 288 285 282 281 280 279
239 241 244 246 248 251 256 263 268 274 280 285 291 295 298 300 302 305 308 309 311 313 313 314 314 312 310 308 307 305 304 303 301 299 297 297 296 295 292 288 285 282 281 280
246 247 249 251 252 253 258 264 269 274 279 282 286 292 296 298 300 302 305 307 308 309 310 311 312 311 310 309 308 307 306 304 303 301 299 299 298 297 296 293 288 284 282 281
252 253 253 254 255 257 261 265 269 273 277 280 285 289 293 296 298 300 302 305 306 308 309 310 311 311 310 309 309 308 307 304 303 302 301 300 300 299 297 294 292 287 284 282
Height
5645 5645 5644 5643 5642 5641 5639 5637 5635 5634 5632 5631 5629 5628 5626 5624 5623 5623 5623 5623 5624 5625 5628 5632 5637 5643 5650 5658 5666 5674 5683 5691 5700 5709 5718 5727 5735 5743 5750 5756 5762 5767 5772 5777
5642 5642 5641 5640 5638 5637 5636 5634 5633 5631 5629 5628 5627 5626 5624 5622 5620 5620 5620 5620 5619 5620 5624 5628 5633 5638 5645 5652 5659 5668 5675 5684 5691 5699 5708 5717 5726 5734 5741 5747 5753 5758 5763 5768
5638 5639 5638 5637 5636 5635 5634 5632 5630 5629 5628 5627 5626 5625 5622 5619 5618 5617 5617 5616 5616 5618 5622 5625 5630 5635 5641 5647 5654 5661 5669 5676 5684 5692 5699 5707 5716 5724 5731 5738 5744 5750 5754 5759
5636 5636 5636 5635 5634 5633 5632 5630 5629 5628 5627 5626 5625 5624 5622 5619 5617 5616 5616 5615 5615 5618 5620 5623 5627 5632 5638 5643 5649 5656 5662 5669 5676 5684 5692 5700 5708 5716 5723 5730 5735 5740 5745 5749
5635 5635 5634 5634 5633 5631 5631 5629 5629 5628 5627 5626 5625 5623 5623 5619 5618 5616 5615 5615 5616 5618 5620 5622 5626 5631 5635 5639 5645 5651 5657 5664 5670 5677 5685 5693 5700 5707 5713 5720 5726 5731 5736 5740
5633 5634 5633 5633 5632 5631 5630 5630 5629 5628 5627 5627 5625 5624 5623 5620 5618 5617 5616 5616 5616 5618 5620 5623 5626 5630 5633 5637 5642 5647 5652 5658 5664 5671 5678 5685 5692 5699 5705 5711 5717 5722 5726 5730
5633 5633 5633 5632 5632 5631 5631 5631 5630 5629 5628 5627 5626 5624 5624 5621 5620 5618 5618 5618 5619 5620 5622 5624 5626 5629 5633 5636 5640 5644 5650 5655 5660 5666 5672 5678 5685 5692 5698 5704 5708 5713 5717 5721
5632 5633 5632 5632 5632 5631 5631 5631 5631 5630 5629 5628 5627 5625 5625 5623 5621 5620 5619 5620 5621 5622 5623 5625 5627 5630 5633 5636 5640 5644 5648 5653 5658 5663 5668 5673 5679 5685 5691 5696 5700 5704 5708 5712
5632 5633 5632 5632 5631 5631 5631 5630 5631 5630 5629 5629 5628 5627 5626 5625 5624 5623 5622 5622 5623 5623 5624 5626 5627 5630 5632 5635 5639 5643 5647 5651 5656 5661 5665 5670 5675 5680 5684 5688 5692 5696 5699 5702
5632 5633 5633 5633 5632 5632 5631 5631 5631 5631 5630 5629 5629 5629 5628 5627 5626 5625 5625 5625 5624 5625 5626 5627 5628 5630 5632 5635 5639 5642 5646 5650 5654 5658 5662 5666 5670 5674 5678 5682 5685 5688 5690 5692
5632 5633 5634 5633 5633 5632 5633 5632 5631 5631 5631 5631 5630 5632 5630 5629 5628 5627 5627 5626 5626 5626 5627 5628 5629 5631 5633 5635 5638 5642 5645 5648 5652 5655 5658 5662 5665 5669 5672 5675 5678 5680 5681 5683
5633 5634 5634 5634 5634 5633 5633 5633 5633 5633 5633 5632 5632 5636 5631 5630 5629 5629 5629 5628 5628 5628 5629 5629 5630 5632 5633 5635 5637 5641 5643 5646 5649 5652 5655 5658 5661 5664 5666 5668 5670 5671 5673 5674
5634 5635 5635 5636 5637 5636 5634 5634 5633 5634 5634 5633 5634 5637 5632 5632 5631 5631 5630 5630 5630 5630 5630 5631 5631 5632 5634 5636 5638 5640 5642 5644 5647 5650 5652 5654 5656 5658 5660 5661 5662 5663 5664 5665
5635 5636 5637 5638 5637 5636 5636 5635 5635 5635 5635 5635 5635 5635 5635 5634 5633 5633 5632 5632 5631 5632 5632 5632 5633 5633 5634 5635 5637 5638 5640 5642 5644 5646 5648 5650 5652 5653 5654 5655 5655 5655 5655 5655
5637 5637 5637 5637 5637 5637 5637 5637 5636 5636 5636 5636 5636 5636 5636 5635 5634 5634 5633 5633 5632 5632 5632 5633 5633 5634 5634 5635 5636 5637 5638 5640 5642 5643 5645 5646 5647 5647 5647 5647 5647 5646 5646 5646
5638 5638 5638 5639 5639 5638 5638 5638 5638 5638 5637 5637 5637 5637 5636 5635 5634 5634 5633 5633 5633 5633 5633 5633 5633 5634 5634 5634 5635 5636 5637 5638 5639 5639 5640 5640 5640 5640 5639 5639 5638 5637 5636 5636
5638 5639 5640 5640 5640 5640 5640 5639 5639 5638 5638 5638 5637 5638 5636 5635 5634 5634 5633 5633 5632 5632 5632 5632 5633 5633 5633 5634 5634 5634 5634 5634 5634 5634 5634 5633 5632 5632 5631 5630 5628 5627 5626 5625
5639 5640 5640 5641 5641 5641 5643 5640 5639 5639 5638 5638 5637 5636 5636 5635 5634 5633 5633 5632 5631 5631 5630 5631 5631 5631 5631 5631 5631 5630 5630 5629 5629 5628 5627 5626 5625 5623 5622 5620 5618 5616 5615 5613
5640 5640 5641 5641 5641 5641 5642 5641 5640 5639 5639 5638 5637 5636 5635 5634 5634 5633 5632 5631 5630 5630 5629 5629 5628 5628 5628 5627 5626 5625 5624 5623 5622 5620 5619 5617 5616 5614 5611 5609 5606 5604 5603 5601
5640 5640 5641 5641 5641 5641 5642 5641 5639 5640 5639 5638 5636 5635 5635 5634 5634 5633 5631 5630 5629 5628 5626 5626 5625 5624 5623 5622 5620 5619 5618 5616 5614 5612 5610 5608 5605 5602 5598 5596 5594 5592 5590 5588
5640 5640 5640 5640 5640 5641 5641 5640 5639 5640 5640 5637 5636 5634 5633 5632 5632 5631 5629 5627 5626 5624 5623 5621 5620 5619 5617 5616 5614 5612 5610 5607 5605 5602 5599 5595 5592 5589 5586 5583 5580 5578 5576 5574
5638 5639 5639 5639 5639 5641 5639 5638 5638 5638 5636 5635 5634 5633 5632 5631 5629 5628 5626 5624 5623 5621 5619 5617 5615 5613 5611 5609 5606 5603 5600 5597 5594 5591 5587 5583 5579 5576 5573 5569 5566 5564 5561 5559
5636 5637 5637 5638 5639 5638 5636 5636 5636 5634 5633 5632 5631 5630 5629 5628 5626 5625 5623 5621 5619 5617 5614 5612 5609 5607 5604 5601 5598 5594 5591 5587 5583 5579 5575 5571 5567 5563 5559 5555 5552 5549 5546 5543
5633 5633 5633 5634 5634 5634 5633 5632 5632 5631 5630 5629 5628 5627 5625 5624 5622 5620 5619 5616 5614 5612 5609 5607 5604 5600 5597 5593 5590 5586 5581 5577 5572 5567 5563 5559 5555 5551 5546 5541 5537 5534 5531 5528
5629 5629 5629 5629 5630 5629 5629 5628 5627 5626 5625 5624 5623 5622 5621 5619 5618 5616 5613 5611 5609 5606 5603 5600 5597 5593 5589 5585 5581 5576 5571 5566 5561 5556 5552 5548 5543 5538 5533 5528 5523 5519 5516 5513
5624 5624 5624 5624 5624 5624 5624 5623 5622 5621 5620 5619 5618 5617 5615 5614 5612 5610 5608 5605 5603 5600 5596 5593 5589 5585 5581 5576 5572 5566 5561 5556 5551 5546 5541 5536 5531 5526 5521 5516 5512 5507 5503 5500